| time (UTC) | temp F | wind direction | speed knots | gust knots | rain 1hr in | rain 24hr in | rain mn in | humidity % | barometer mb |
| 20260507051504 | 39 | 40 | 2.6 | 0.0 | 0.00 | 0.00 | 0.00 | 86 | 1020.0 |
| 20260507050005 | 39 | 40 | 2.6 | 0.0 | 0.00 | 0.00 | 0.00 | 86 | 1020.0 |
| 20260507044504 | 36 | 50 | 2.6 | 0.0 | 0.00 | 0.00 | 0.00 | 93 | 1020.0 |
| 20260507041504 | 36 | 0 | 1.7 | 0.0 | 0.00 | 0.00 | 0.00 | 86 | 1020.0 |
| 20260507040005 | 36 | 0 | 1.7 | 0.0 | 0.00 | 0.00 | 0.00 | 86 | 1020.0 |
| 20260507034504 | 34 | 0 | 1.7 | 0.0 | 0.00 | 0.00 | 0.00 | 93 | 1020.0 |
| 20260507031504 | 36 | 0 | 1.7 | 0.0 | 0.00 | 0.00 | 0.00 | 86 | 1019.0 |
| 20260507024503 | 34 | 50 | 5.2 | 0.0 | 0.00 | 0.00 | 0.00 | 93 | 1019.0 |
| 20260507023004 | 34 | 50 | 5.2 | 0.0 | 0.00 | 0.00 | 0.00 | 93 | 1019.0 |
| 20260507003005 | 36 | 0 | 1.7 | 0.0 | 0.00 | 0.00 | 0.00 | 93 | 1019.0 |
| 20260507001504 | 39 | 190 | 1.7 | 0.0 | 0.00 | 0.00 | 0.00 | 86 | 1018.0 |
| 20260507000004 | 39 | 190 | 1.7 | 0.0 | 0.00 | 0.00 | 0.00 | 86 | 1018.0 |
| 20260506231504 | 41 | 0 | 0.9 | 0.0 | 0.00 | 0.00 | 0.00 | 80 | 1018.0 |
| 20260506230004 | 41 | 0 | 0.9 | 0.0 | 0.00 | 0.00 | 0.00 | 80 | 1018.0 |
| 20260506221504 | 41 | 20 | 4.3 | 0.0 | 0.00 | 0.00 | 0.00 | 80 | 1018.0 |
| 20260506220005 | 41 | 40 | 5.2 | 0.0 | 0.00 | 0.00 | 0.00 | 80 | 1018.0 |
| 20260506214504 | 41 | 40 | 5.2 | 0.0 | 0.00 | 0.00 | 0.00 | 80 | 1018.0 |
| 20260506213004 | 41 | 40 | 5.2 | 0.0 | 0.00 | 0.00 | 0.00 | 80 | 1018.0 |
| 20260506211504 | 43 | 70 | 4.3 | 0.0 | 0.00 | 0.00 | 0.00 | 81 | 1018.0 |
| 20260506204503 | 45 | 0 | 0.9 | 0.0 | 0.00 | 0.00 | 0.00 | 75 | 1018.0 |
| 20260506201504 | 46 | 0 | 1.7 | 0.0 | 0.00 | 0.00 | 0.00 | 70 | 1018.0 |
| 20260506200005 | 46 | 0 | 1.7 | 0.0 | 0.00 | 0.00 | 0.00 | 70 | 1018.0 |
| 20260506193004 | 48 | 0 | 0.9 | 0.0 | 0.00 | 0.00 | 0.00 | 66 | 1018.0 |
| 20260506183005 | 48 | 260 | 2.6 | 0.0 | 0.00 | 0.00 | 0.00 | 70 | 1017.0 |
| 20260506181504 | 50 | 260 | 4.3 | 0.0 | 0.00 | 0.00 | 0.00 | 66 | 1017.0 |
| 20260506180005 | 50 | 260 | 4.3 | 0.0 | 0.00 | 0.00 | 0.00 | 66 | 1017.0 |
| 20260506174503 | 52 | 300 | 2.6 | 0.0 | 0.00 | 0.00 | 0.00 | 62 | 1017.0 |
| 20260506173004 | 52 | 300 | 2.6 | 0.0 | 0.00 | 0.00 | 0.00 | 62 | 1017.0 |
| 20260506170004 | 54 | 290 | 6.1 | 0.0 | 0.00 | 0.00 | 0.00 | 54 | 1017.0 |
| 20260506164504 | 55 | 280 | 7.0 | 0.0 | 0.00 | 0.00 | 0.00 | 54 | 1017.0 |
| 20260506160005 | 57 | 260 | 10.4 | 0.0 | 0.00 | 0.00 | 0.00 | 47 | 1016.0 |
| 20260506154504 | 57 | 290 | 0.9 | 0.0 | 0.00 | 0.00 | 0.00 | 50 | 1016.0 |
| 20260506153004 | 57 | 290 | 0.9 | 0.0 | 0.00 | 0.00 | 0.00 | 50 | 1016.0 |
| 20260506150005 | 59 | 260 | 10.4 | 0.0 | 0.00 | 0.00 | 0.00 | 47 | 1016.0 |
| 20260506143005 | 57 | 290 | 7.0 | 0.0 | 0.00 | 0.00 | 0.00 | 50 | 1016.0 |
| 20260506141504 | 57 | 260 | 10.4 | 0.0 | 0.00 | 0.00 | 0.00 | 47 | 1016.0 |
| 20260506134504 | 57 | 330 | 6.1 | 0.0 | 0.00 | 0.00 | 0.00 | 50 | 1016.0 |
| 20260506133004 | 57 | 330 | 6.1 | 0.0 | 0.00 | 0.00 | 0.00 | 50 | 1016.0 |
| 20260506130005 | 57 | 340 | 6.1 | 0.0 | 0.00 | 0.00 | 0.00 | 50 | 1016.0 |
| 20260506123005 | 57 | 0 | 5.2 | 0.0 | 0.00 | 0.00 | 0.00 | 50 | 1017.0 |
| 20260506121504 | 55 | 240 | 6.1 | 0.0 | 0.00 | 0.00 | 0.00 | 54 | 1017.0 |
| 20260506120005 | 55 | 240 | 6.1 | 0.0 | 0.00 | 0.00 | 0.00 | 54 | 1017.0 |
| 20260506113004 | 55 | 0 | 6.1 | 0.0 | 0.00 | 0.00 | 0.00 | 54 | 1017.0 |
| 20260506111503 | 55 | 0 | 6.1 | 0.0 | 0.00 | 0.00 | 0.00 | 54 | 1017.0 |
| 20260506110005 | 55 | 0 | 6.1 | 0.0 | 0.00 | 0.00 | 0.00 | 54 | 1017.0 |
| 20260506104504 | 55 | 200 | 4.3 | 0.0 | 0.00 | 0.00 | 0.00 | 54 | 1017.0 |
| 20260506103002 | 55 | 200 | 4.3 | 0.0 | 0.00 | 0.00 | 0.00 | 54 | 1017.0 |
| 20260506093004 | 54 | 0 | 5.2 | 0.0 | 0.00 | 0.00 | 0.00 | 54 | 1017.0 |
| 20260506090004 | 52 | 250 | 6.1 | 0.0 | 0.00 | 0.00 | 0.00 | 62 | 1017.0 |
| 20260506083004 | 50 | 250 | 4.3 | 0.0 | 0.00 | 0.00 | 0.00 | 66 | 1017.0 |
| 20260506073004 | 48 | 0 | 2.6 | 0.0 | 0.00 | 0.00 | 0.00 | 70 | 1017.0 |
| 20260506071504 | 46 | 0 | 1.7 | 0.0 | 0.00 | 0.00 | 0.00 | 81 | 1017.0 |
| 20260506061504 | 43 | 0 | 1.7 | 0.0 | 0.00 | 0.00 | 0.00 | 87 | 1017.0 |